Keps
Threads by month
- ----- 2023 -----
- December
- November
- October
- September
- August
- July
- June
- May
- April
- March
- February
- January
- ----- 2022 -----
- December
- November
- October
- September
- August
- July
- June
- May
- April
- March
- February
- January
- ----- 2021 -----
- December
- November
- October
- September
- August
- July
- June
- May
- April
- March
- February
- January
- ----- 2020 -----
- December
- November
- October
- September
- August
- July
- June
- May
- April
- March
- February
- January
- ----- 2019 -----
- December
- November
- October
- September
- August
- July
- June
- May
- April
- March
- February
- January
- ----- 2018 -----
- December
- November
- October
- September
- August
- July
- June
- May
- April
- March
- February
- January
- ----- 2017 -----
- December
- November
- October
- September
- August
- July
- June
- May
- April
- March
- February
- January
- ----- 2016 -----
- December
- November
- October
- September
- August
- July
- June
- May
- April
- March
- February
- January
- ----- 2015 -----
- December
- November
- October
- September
- August
- July
- June
- May
- April
- March
- February
- January
- ----- 2014 -----
- December
- November
- October
- September
- August
- July
- June
- May
- April
- March
- February
- January
- ----- 2013 -----
- December
- November
- October
- September
- August
- July
- June
- May
- April
- March
- February
- January
- ----- 2012 -----
- December
- November
- October
- September
- August
- July
- June
- May
- April
- March
- February
- January
- ----- 2011 -----
- December
- November
- October
- September
- August
- July
- June
- May
- April
- March
- February
- January
- ----- 2010 -----
- December
- November
- October
- September
- August
- July
- June
- May
- April
- March
- February
- January
- ----- 2009 -----
- December
- November
- October
- September
- August
- July
- June
- May
- April
- March
- February
- January
- ----- 2008 -----
- December
- November
- October
- September
- August
- July
- June
- May
- April
- March
- February
- January
- ----- 2007 -----
- December
- November
- October
- September
- August
- July
- June
- May
- April
- March
- February
- January
- ----- 2006 -----
- December
- November
- October
- September
August 2020
- 1 participants
- 4 discussions
SB KEPS @ AMSAT $ORB20240.N
2Line Orbital Elements 20240.AMSAT
HR AMSAT ORBITAL ELEMENTS FOR AMATEUR SATELLITES IN NASA FORMAT
FROM WA5QGD FORT WORTH,TX August 27, 2020
BID: ORB20240.N
DECODE 2-LINE ELSETS WITH THE FOLLOWING KEY:
1 AAAAAU 00 0 0 BBBBB.BBBBBBBB .CCCCCCCC 00000-0 00000-0 0 DDDZ
2 AAAAA EEE.EEEE FFF.FFFF GGGGGGG HHH.HHHH III.IIII JJ.JJJJJJJJKKKKKZ
KEY: A-CATALOGNUM B-EPOCHTIME C-DECAY D-ELSETNUM E-INCLINATION F-RAAN
G-ECCENTRICITY H-ARGPERIGEE I-MNANOM J-MNMOTION K-ORBITNUM Z-CHECKSUM
TO ALL RADIO AMATEURS BT
AO-07
1 07530U 74089B 20240.01925858 -.00000024 00000-0 13373-3 0 9996
2 07530 101.8064 209.3832 0011806 227.5749 174.0916 12.53644802094833
UO-11
1 14781U 84021B 20240.05933225 .00000059 00000-0 13336-4 0 9997
2 14781 97.5905 248.5210 0007819 339.5326 20.5574 14.83186651963291
LO-19
1 20442U 90005G 20240.73439033 -.00000001 00000-0 15969-4 0 9992
2 20442 98.6965 188.2424 0010894 309.2210 50.8006 14.32959310598823
HUBBLE
1 20580U 90037B 20240.24896010 .00000415 00000-0 14240-4 0 9997
2 20580 028.4687 211.4068 0002920 130.7586 002.2714 15.09421919466673
MET-2/21
1 22782U 93055A 20240.25825951 .00000088 00000-0 65626-4 0 9993
2 22782 082.5517 177.3996 0023459 039.2484 131.4755 13.83829024362834
AO-27
1 22825U 93061C 20240.24757088 -.00000010 00000-0 14074-4 0 9999
2 22825 098.9254 244.4871 0008669 164.0212 196.1244 14.30091174403939
IO-26
1 22826U 93061D 20240.07748947 -.00000008 00000-0 14812-4 0 9992
2 22826 098.9195 244.2518 0009385 153.4175 206.7490 14.30427390404144
FO-29
1 24278U 96046B 20240.22775274 -.00000050 00000-0 -14078-4 0 9993
2 24278 098.5882 340.8116 0350226 191.4288 167.8747 13.53099621186452
NOAA-15
1 25338U 98030A 20240.23264201 .00000022 00000-0 27858-4 0 9997
2 25338 98.7139 264.9106 0011365 60.6723 299.5591 14.25986939159324
GO-32
1 25397U 98043D 20240.35760751 -.00000017 00000-0 11795-4 0 9998
2 25397 98.7312 181.3287 0001047 158.3386 201.7836 14.23689357149867
ISS
1 25544U 98067A 20240.83629779 .00000611 00000-0 19116-4 0 9999
2 25544 51.6466 353.8861 0001769 64.9089 77.9617 15.49190325243121
NO-44
1 26931U 01043C 20240.61975907 -.00000052 00000-0 11704-4 0 9996
2 26931 67.0524 318.7428 0006259 275.4127 84.6260 14.30585353987322
SO-50
1 27607U 02058C 20240.18810889 -.00000046 00000-0 13807-4 0 9992
2 27607 64.5557 158.1029 0039220 154.5408 205.7638 14.75653943951299
CO-55
1 27844U 03031E 20239.99432158 .00000032 00000-0 33872-4 0 9991
2 27844 98.6827 246.6652 0009267 205.2030 154.8696 14.22252699890169
CO-57
1 27848U 03031J 20240.67484135 .00000027 00000-0 31944-4 0 9996
2 27848 98.6893 247.8982 0008979 216.3732 143.6836 14.21837872890091
RS-22
1 27939U 03042A 20240.80540866 .00000091 00000-0 24939-4 0 9995
2 27939 98.1002 14.7156 0014103 125.2195 235.0339 14.66881413904471
NOAA-18
1 28654U 05018A 20240.28075825 .00000042 00000-0 47262-4 0 9995
2 28654 99.0380 297.3507 0014709 35.5952 324.6198 14.12534758787004
CO-58
1 28895U 05043F 20240.02682553 .00000085 00000-0 25174-4 0 9999
2 28895 98.0192 14.4428 0017951 61.0335 299.2664 14.63793096791167
Falconsat-3
1 30776U 07006E 20240.31076066 .00002803 00000-0 74323-4 0 9999
2 30776 35.4335 186.5832 0001558 128.7414 231.3453 15.38086406747759
CO-65
1 32785U 08021C 20240.72335349 .00000178 00000-0 24817-4 0 9992
2 32785 97.5780 225.6237 0011455 255.7307 104.2639 14.88504818668546
AAUSAT2
1 32788U 08021F 20240.19440556 .00000064 00000-0 10784-4 0 9995
2 32788 097.4930 241.5553 0011830 170.5187 189.6260 14.95125119669886
DO-64
1 32789U 08021G 20240.07802277 .00000976 00000-0 67504-4 0 9999
2 32789 097.4133 280.3959 0013655 076.4013 283.8736 15.07874955672457
CO-66
1 32791U 08021J 20239.92979259 .00000355 00000-0 41103-4 0 9997
2 32791 097.5446 230.9822 0012069 223.0336 136.9940 14.91095674668886
RS-30
1 32953U 08025A 20240.78569110 .00000037 00000-0 19437-3 0 9999
2 32953 82.4994 233.5377 0017857 258.2338 101.6737 12.43097944556496
PRISM
1 33493U 09002B 20240.36916197 .00000157 00000-0 19161-4 0 9998
2 33493 98.1468 183.6196 0014835 176.4998 183.6329 14.97105767630322
NOAA-19
1 33591U 09005A 20240.43127958 .00000033 00000-0 43198-4 0 9997
2 33591 99.1965 247.6276 0013137 234.6085 125.3859 14.12428797595411
TISAT-1
1 36799U 10035E 20240.55516123 .00000367 00000-0 42887-4 0 9998
2 36799 98.2000 53.5847 0013626 96.5925 263.6844 14.91408134549726
JUGNU
1 37839U 11058B 20240.20858150 .00000318 00000-0 27520-4 0 9994
2 37839 19.9599 213.6766 0019135 88.5347 21.0030 14.12686593458917
SRMSAT
1 37841U 11058D 20240.23717311 .00000337 00000-0 39821-4 0 9991
2 37841 019.9716 279.3012 0011677 302.2422 117.9275 14.10667910458171
AO-71
1 37854U 11061E 20240.78719601 .00001532 00000-0 84089-4 0 9997
2 37854 101.7061 8.8612 0157974 209.5361 149.6858 15.07419297482672
HRBE
1 37855U 11061F 20240.31413411 .00001297 00000-0 71386-4 0 9991
2 37855 101.7185 5.2667 0170514 224.5166 134.2242 15.06437802482348
HORYU-2
1 38340U 12025D 20240.73639479 .00000091 00000-0 21182-4 0 9992
2 38340 98.2748 295.9778 0011820 167.3721 192.7786 14.75881468445470
RS-40
1 38735U 12041C 20240.22453908 .00000041 00000-0 22465-3 0 9992
2 38735 82.4795 316.5381 0016967 11.5744 348.5723 12.42580770366644
BEESAT-3
1 39135U 13015F 20240.71119101 .00000797 00000-0 48025-4 0 9996
2 39135 64.8656 71.2616 0034910 231.2974 128.5030 15.18294234406420
BEESAT-2
1 39136U 13015G 20239.99667696 .00000693 00000-0 43783-4 0 9993
2 39136 064.8722 078.7890 0034171 272.0087 087.7126 15.17691337405827
ZACUBE-1
1 39417U 13066B 20239.95500249 .00000166 00000-0 27066-4 0 9998
2 39417 97.5683 234.0659 0060049 47.7681 312.8606 14.81307322365477
TRITON-1
1 39427U 13066M 20240.77363242 .00000115 00000-0 26509-4 0 9996
2 39427 97.7316 197.7673 0112774 209.3428 150.1416 14.68035338362314
GOMX-1
1 39430U 13066Q 20240.83496275 .00000150 00000-0 36495-4 0 9994
2 39430 97.7919 175.0577 0150325 320.2258 38.8010 14.59428379360217
LO-74
1 39440U 13066AA 20240.53453718 .00000156 00000-0 28368-4 0 9993
2 39440 97.6366 219.1301 0081530 109.0233 251.9832 14.76042010364267
AO-73
1 39444U 13066AE 20240.51962935 .00000227 00000-0 34035-4 0 9998
2 39444 97.5621 236.8678 0058952 37.9904 322.5446 14.82167572364481
SPROUT
1 39770U 14029E 20240.77367841 .00000409 00000-0 50798-4 0 9999
2 39770 97.9009 346.7672 0010090 91.7279 268.5078 14.87827306339661
DUCHIFAT-1
1 40021U 14033M 20240.35251353 .00000394 00000-0 45757-4 0 9991
2 40021 97.9430 172.0293 0014234 56.9310 303.3273 14.90956247336452
NANOSATCBR1
1 40024U 14033Q 20240.21364962 .00000318 00000-0 38790-4 0 9995
2 40024 097.9267 168.0381 0013568 061.7602 298.4983 14.90118419335770
DTUSAT-2
1 40030U 14033W 20240.32722062 .00000187 00000-0 26046-4 0 9998
2 40030 97.9008 161.9372 0013300 64.9363 295.3233 14.88748386336061
EO-80
1 40032U 14033Y 20240.34851250 .00000186 00000-0 25934-4 0 9998
2 40032 97.9014 161.9613 0013223 65.6870 294.5726 14.88698391336050
ANTELSAT
1 40034U 14033AA 20240.66659300 .00000144 00000-0 28466-4 0 9994
2 40034 97.7073 92.9212 0059702 127.6377 233.0271 14.74287847332904
VELOX-1
1 40057U 14034E 20240.86130877 .00000182 00000-0 32979-4 0 9991
2 40057 98.2897 19.8228 0009620 278.5000 81.5118 14.77912182332183
DAURIA DX 1
1 40071U 14037C 20240.77712950 .00000021 00000-0 10280-4 0 9991
2 40071 98.4631 63.1341 0007215 269.3729 90.6657 14.81384874331813
HODOYOSHI-1
1 40299U 14070B 20240.76912160 .00000424 00000-0 20276-4 0 9997
2 40299 97.3179 315.8392 0011642 309.1950 203.7284 15.24142827322676
CHUBUSAT-1
1 40300U 14070C 20240.79044863 .00000474 00000-0 23303-4 0 9998
2 40300 97.2826 307.8025 0019105 326.8267 154.7142 15.22591604322363
